Retour au catalogue

LICHUANHONG

ActifScienceSSO
NORAD 69542·PAYLOAD·🇨🇳 China
Ce nom de satellite n'a pas encore été confirmé par des sources officielles.

Lancé Jun 15, 2026 depuis Jiuquan Satellite Launch Center

Loading…

Prochains Passages (prochaines 24 heures)

TLE

FraisSource: Space-Track

Époque: Sep 14, 2026, 11:09 UTC

1 69542U 26134E   26257.46486534  .00003845  00000-0  24323-3 0  9991
2 69542  97.6975 327.9958 0016934 327.3125  32.7054 15.09507127 13776

Suivez LICHUANHONG en temps réel avec AllMySat

Download on the App Store